Powrót do katalogu

STARLINK-3260

AktywnyŁącznośćVLEO
NORAD 50205·PAYLOAD·🇺🇸 United States

Wystrzelony Dec 18, 2021 z Vandenberg Space Force Base

Loading…

Następne Przeloty (najbliższe 24 godziny)

TLE

ŚwieżeSource: CelesTrak SupGP

Epoka: Sep 14, 2026, 20:52 UTC

1 50205C 21125BB  26257.86993056  .00004244  00000+0  13649-3 0  2577
2 50205  53.1582  75.0292 0001131  82.8107  15.7377 15.31696177    12

Śledź STARLINK-3260 w czasie rzeczywistym z AllMySat

Download on the App Store